Regional Weather Roundup
Issued by NWS Newport/Morehead, NC

Current Version | Previous Version | Graphics & Text | Print | Product List | Glossary Off
Versions: 1 2 3 4 5 6 7 8 9 10 11 12 13 14 15 16 17 18 19 20 21 22 23 24 25 26 27 28 29 30 31 32 33 34 35 36 37 38 39 40 41 42 43 44 45 46 47 48 49 50

000
ASUS42 KMHX 281022
RWRMHX
WEATHER ROUNDUP FOR EASTERN NORTH CAROLINA
NATIONAL WEATHER SERVICE NEWPORT/MOREHEAD CITY NC
500 AM EST WED JAN 28 2015

NOTE: "FAIR" INDICATES FEW OR NO CLOUDS BELOW 12,000 FEET
WITH NO SIGNIFICANT WEATHER AND/OR OBSTRUCTIONS TO VISIBILITY

NCZ015>017-031-032-045>047-102-103-281100-
NORTH COAST

CITY           SKY/WX    TMP DP  RH WIND       PRES   REMARKS
EDENTON        PTCLDY    31  21  66 N10       30.06R
ELIZABETH CITY CLEAR     30  20  66 N16       30.04R WCI  19
KITTY HAWK     MOSUNNY   32  23  69 N9G16     30.00R
MANTEO         MOCLDY    32  21  64 NW15      30.02R

$$

NCZ045>047-081-094-103-104-281100-
CENTRAL COAST

CITY           SKY/WX    TMP DP  RH WIND       PRES   REMARKS
FRISCO         MOCLDY    34  25  69 N9        30.01R
SWANQUARTER    NOT AVBL

$$

NCZ095-097-098-100-101-281100-
SOUTHERN COAST

CITY           SKY/WX    TMP DP  RH WIND       PRES   REMARKS
BEAUFORT       CLEAR     32  27  81 N13       30.03R
CEDAR ISLAND   NOT AVBL
JACKSONVILLE   CLEAR     29  20  69 NW12      30.07R WCI  19
PINEY ISLAND     N/A    N/A N/A N/A MISG      30.03R
WILMINGTON     PTCLDY    30  17  58 N8        30.07R


$$

NCZ011>013-027>030-043-044-078>080-089-090>093-098-281100-
COASTAL PLAIN

CITY           SKY/WX    TMP DP  RH WIND       PRES   REMARKS
AHOSKIE        CLEAR     29  19  64 N5        30.08R
CLINTON        CLEAR     29  18  63 NW5       30.10R
ELIZABETHTOWN  CLEAR     28  17  62 NW3       30.10R
GOLDSBORO      CLEAR     28  22  76 NW3       30.07R
GREENVILLE     CLOUDY    32  21  64 N5        30.08R
HAVELOCK       CLEAR     33  24  69 N14       30.05R
KENANSVILLE    CLEAR     28  17  63 NW5       30.10R
KINSTON        CLEAR     27  19  72 NW5       30.08R
NEW BERN       CLEAR     31  22  69 NW7       30.06R
RICHLANDS      CLEAR     27  18  69 CALM      30.08R
ROCKY MOUNT    CLOUDY    30  17  58 NW7       30.08R
WASHINGTON     CLOUDY    32  21  65 NW8       30.07R
WHITEVILLE     CLEAR     30  17  58 CALM      30.09R

$$

AMZ130-135-150-152-154-156-158-170-250-252-270-ANZ085-086-088-633-658-670-281100-
MARINE OBSERVATIONS

STATION/POSITION TIME  TEMP    WIND        PRES    WAVE   SWELL
                       AIR SEA DIR/SP/G            HT/PER HT/PER
                 (UTC) (F)     (DEG/KT/KT) (MB)    (FT/S) (FT/S)
CHESAPEAKE LIGHT 1000   31     350/ 29/ 31 1016.5
64 E VA BEACH    1000   36 51  340/ 23/ 29 1014.0   12/13  10/13
DUCK             1000   32 42  330/ 20/ 24 1015.5
2 E DUCK         1000      43                N/A     7/13   5/13
10 NE DUCK       1000      45                N/A     9/13   5/13
OREGON INLET     1000   33 42  320/ 14/ 17 1016.2
13E OREGON INLT  1000      45                N/A    10/12   7/12
HATTERAS CG      1000   36 47  360/ 18/ 21 1016.3
DIAMOND BUOY     1000   39 67  340/ 19/ 25 1014.9    9/13   8/13
17 S OCRACOKE    NOT AVBL
CAPE LOOKOUT     1000   35     340/ 13/ 17 1016.5
BEAUFORT LAB     1000   33 48  340/  9/ 14 1015.9
27 SE WRIGHTSVLE NOT AVBL
5 SE WRIGHTSVLE  1000   36 53  360/ 21/ 27 1017.6
225 S CAPE HAT   0915   57 71  310/ 23/ 29 1012.3   11/14   7/14
41 SE CHARLESTON 1000   46 67  350/ 21/ 25 1017.2    6/ 5   2/11

$$


USA.gov is the U.S. government's official web portal to all federal, state and local government web resources and services.